Regional Weather Roundup
Issued by NWS Newport/Morehead, NC

Current Version | Previous Version | Text Only | Print | Product List | Glossary On
Versions: 1 2 3 4 5 6 7 8 9 10 11 12 13 14 15 16 17 18 19 20 21 22 23 24 25 26 27 28 29 30 31 32 33 34 35 36 37 38 39 40 41 42 43 44 45 46 47 48 49 50
000
ASUS42 KMHX 270022
RWRMHX
WEATHER ROUNDUP FOR EASTERN NORTH CAROLINA
NATIONAL WEATHER SERVICE NEWPORT/MOREHEAD CITY NC
700 PM EST MON JAN 26 2015

NOTE: "FAIR" INDICATES FEW OR NO CLOUDS BELOW 12,000 FEET
WITH NO SIGNIFICANT WEATHER AND/OR OBSTRUCTIONS TO VISIBILITY

NCZ015>017-031-032-045>047-102-103-270100-
NORTH COAST

CITY           SKY/WX    TMP DP  RH WIND       PRES   REMARKS
EDENTON        CLOUDY    47  42  81 NW3       29.58S
ELIZABETH CITY CLOUDY    45  41  87 N14       29.57R
KITTY HAWK     CLOUDY    45  43  95 NW7       29.52S
MANTEO         CLOUDY    46  43  87 NW10G17   29.54S

$$

NCZ045>047-081-094-103-104-270100-
CENTRAL COAST

CITY           SKY/WX    TMP DP  RH WIND       PRES   REMARKS
FRISCO         MOCLDY    48  46  93 NW10      29.53R
SWANQUARTER      N/A     48 N/A N/A NW7       29.53

$$

NCZ095-097-098-100-101-270100-
SOUTHERN COAST

CITY           SKY/WX    TMP DP  RH WIND       PRES   REMARKS
BEAUFORT       MOCLDY    48  43  82 N9        29.58R
CEDAR ISLAND     N/A     48 N/A N/A W12       29.59
JACKSONVILLE   CLOUDY    50  43  77 NW13      29.61R
PINEY ISLAND     N/A    N/A N/A N/A MISG      29.57R
WILMINGTON     CLOUDY    50  41  71 NW10      29.63R


$$

NCZ011>013-027>030-043-044-078>080-089-090>093-098-270100-
COASTAL PLAIN

CITY           SKY/WX    TMP DP  RH WIND       PRES   REMARKS
AHOSKIE        CLOUDY    46  39  75 CALM      29.62R
CLINTON        CLOUDY    47  45  95 NW3       29.64R
ELIZABETHTOWN  CLOUDY    47  45  92 W6        29.65R
GOLDSBORO      CLOUDY    49  48  98 NW3       29.61S
GREENVILLE     CLOUDY    46  45  93 N8        29.65R
HAVELOCK       CLOUDY    49  43  80 NW10      29.60R
KENANSVILLE    CLOUDY    47  43  85 NW6       29.64R
KINSTON        CLOUDY    50  43  76 NW8       29.62R
NEW BERN       LGT RAIN  50  43  77 N3        29.60R
RICHLANDS      CLOUDY    48  41  76 W6        29.63R
ROCKY MOUNT    CLOUDY    46  41  82 NW9       29.64R
WASHINGTON     CLOUDY    46  44  93 N6        29.61R
WHITEVILLE     CLOUDY    49  43  79 W3        29.65R

$$

AMZ130-135-150-152-154-156-158-170-250-252-270-ANZ085-086-088-633-658-670-270100-
MARINE OBSERVATIONS

STATION/POSITION TIME  TEMP    WIND        PRES    WAVE   SWELL
                       AIR SEA DIR/SP/G            HT/PER HT/PER
                 (UTC) (F)     (DEG/KT/KT) (MB)    (FT/S) (FT/S)
CHESAPEAKE LIGHT 0000   41     330/ 28/ 31 1000.9
64 E VA BEACH    0000   48 52  330/ 23/ 29  997.3    4/ 7   2/ 7
DUCK             0000   44 44  330/ 24/ 27  999.2
2 E DUCK         0000      44                N/A     4/ 4   2/12
10 NE DUCK       0000      45                N/A     5/ 4   2/11
OREGON INLET     0000   46 46  310/ 11/ 15  999.8
13E OREGON INLT  0000      46                N/A     4/ 4   2/11
HATTERAS CG      0000   49 54  310/ 16/ 18 1000.2
DIAMOND BUOY     0000   54 70  310/ 19/ 23  999.0    4/ 7   3/ 7
17 S OCRACOKE    NOT AVBL
CAPE LOOKOUT     0000   50     330/ 10/ 12 1001.1
BEAUFORT LAB     0000   49 50  330/  6/  9 1000.6
27 SE WRIGHTSVLE NOT AVBL
5 SE WRIGHTSVLE  0000   52 52  340/ 16/ 17 1003.0
225 S CAPE HAT   NOT AVBL
41 SE CHARLESTON 0000   57 68  270/ 27/ 33 1004.3    7/ 7   2/13

$$



USA.gov is the U.S. government's official web portal to all federal, state and local government web resources and services.